"Pseudo-MPEC" for 1BM2421

Created 2021 Nov 26 4:07:02 UT using Find_Orb

Click here for an explanation of pseudo-MPECs

 
 Astrometry: 
     1BM2421 KC2021 11 2307qU7AfiaV^?Y8vG@4c\x!YFiP7c4ZM%Q(LH`h$x-8k]_1:MNvOUW94
     1BM2421 KC2021 11 23_=[MQ/S]7I/`/Qb9VSvpd6w8g#hv)`6!BAstrometryc,+pivtS\W94
     1BM2421 KC2021 11 23]*UEwext5d3/+jQ\N7r)355r,%oZX+=`c:L;ha2,NAl?LNG=PQ5eW94
     1BM2421 KC2021 11 23IuDrUV$ssd6gjQ/,=;4^-S05N5*YKp\nUVK3)Dw?eBJt(h5wJk2JW95
     1BM2421 KC2021 11 23s/,'Yh'Mw]x0@vb_a^d[f,K(2RWhWPjf\qE%yrV6qA1m]J/A4j-@W95
     1BM2421 KC2021 11 23o5-qBd`yoP?Qd0U6AEabV/E'redacted;fo.M6XwO^a57V@VbBtLW95
     1BM2421 KC2021 11 23Q1mvLUS[TZytObG?@pIX9nhY$*UyW,dJ(6Z5r4IK/S30r-clickNW95
     1BM2421 KC2021 11 23iW+!pSC)WN8V_D@/1ip]X?.ArvQE)Z4:?idrfmO:_`S]Zcdk,4(SW95
     1BM2421 KC2021 11 237_L37qpK_1j(Onwkc\+@fY^1fr:*KQDQ[h`aSPC)F87UbCq(cQ@tW95
     1BM2421 pC2021 11 23q84Ud?yo]4rt3Y$WbJIh$Q9O3ZTP+Fea0^:ZvOR#e[\BD,E2I=;yL01
     1BM2421 bC2021 11 23+q39H?_gJKt*G#6I'!_cx)IComguFLmYeoR$\2Na-2c0H2k$K.T2L01
     1BM2421 pC2021 11 23E$8lk3l=Z\)X`?ki'R!jb$V.((*6N):@P_.BVhHlL[SkvLXwt!M(L01
     1BM2421 bC2021 11 23]/EgyMqnnGSCdDFVp[/ba_hs]_m82Pvuu=NHhBpivr3:=3pgnZ)/L01
     1BM2421 bC2021 11 23?r(VWuoCKErF#+ist?FaY=tO*BchQ)`Y_=/.:4-25JXlUG?)@?kyL01
     1BM2421 KC2021 11 23.83306302 38 54.07 -14 45 41.8    ~BNLq 19.6 GVNEOCP595
     1BM2421 KC2021 11 23\?)Abl/9OoMif\QZp_l_c$+rKUFjF'@)H(OWu%HnF*yU8r:!vFMVK51
     1BM2421 KC2021 11 23K)#;)#BI`D+5!':'ObMZ-5T%)0V)]fT@iJJlls,7%Bl`6N5SUIocK51
     1BM2421 KC2021 11 238IBB3RKK?k.*;UPiaAH]4.tbwMqGvZ_yW[3/-^(gOkqEGh;i6yWxK51
     1BM2421 KC2021 11 23.86654002 38 51.93 -14 40 59.9    ~BNLq 19.5 GVNEOCP595
     1BM2421 KC2021 11 23ssujvP%\O\=bE$Nk*?O?=Za-3_`7Z`[Wj`m@vd\vi]$4gC+pIgP0104
     1BM2421 KC2021 11 23td(3$sG?.$/IKOE62u%hereIymjvx`8GMC1!amhef5*u::x?iCUU104
     1BM2421 KC2021 11 23s4Xr(Ho.a(5*9jkaX1'n;Vb/T'SR7.KKgC-i84xTpg^c2*Jj;R80104
     1BM2421 |C2021 11 24.T@c6soM[@Rc:lVND0xeHawR2hGZ2L5,iK%^R:X*qBDcRLabJL02807
     1BM2421 |C2021 11 24J=xlLPBa\ff;$0]#'%!j1N+sRW]'Tss2#U;`u(Uye\#l;%6L-AE9807
     1BM2421 |C2021 11 24y]XZ7N.da.hp#(k+]D`Ifor'c;BBRI)sHCL+U-w);aD#):1_fo*L807
     1BM2421 KC2021 11 24rei3af?0ImYlsG;+uWOR:DYL]yuA%m,HZn4TX^G7*@0,!K7v\@)wH21
     1BM2421 KC2021 11 24db#;xC@EPh%xWY0oZHS!X_V]P,tq5q5Qt7lL[2qeUP=20M[DO4EaH21
     1BM2421 KC2021 11 24NUE$b?OwjeOVujkbaV=7M)!!dFPREl!7+=0Z:TyCrV?b!'#Xxn+[H21
     1BM2421 KC2021 11 24p`EpkQo]XJN=g^Q\l+Yd;xY)N1wZlGtkqeCgHUkvLY4#o.NDI'J@H21
     1BM2421 KC2021 11 24`-nL_(`#0Xh-ykbjg4#Vkr6TG[WexplanationN_whGl:,t3lww$W95
     1BM2421 KC2021 11 24@*W1FR4%bYRy3S4k[Mh#t4Z/+M`(+fck2exD`Yv_mOM8d!ZhOo`0W95
     1BM2421 KC2021 11 24Xk7sBy9_jKJhKI)^EBQOpC9K$'TMgd+2UI+xx7GI5Ne30a91bS6@W95
     1BM2421  C2021 11 244jmUx4d!t$rTKvp:$[3kEN0__L8ulL?_(N7q98EUpq/uG%jL:#q`F52
     1BM2421  C2021 11 24+'Ej-7?y=^8F3OqBp[lgkBiJ2oeif%tnJUa7U$uG$bQOhME$sgo;F52
     1BM2421  C2021 11 24VsMK8pk=j9g.o(E$auKe7V;Z)`^#'-r]Zbsp.6;GX#:I@!xFAi\IF52
     1BM2421 KC2021 11 25.05474502 38 00.58 -12 04 12.2    ~BP1q 19.6 GXNEOCPY00
     1BM2421 KC2021 11 25.06125202 38 00.13 -12 03 24.6    ~BP1q 19.5 GXNEOCPY00
     1BM2421 KC2021 11 25.06756802 37 59.84 -12 02 37.9    ~BP1q 19.3 GXNEOCPY00
     1BM2421 |C2021 11 25`va=$n5;O5X`fl!3$$*?'$@YJaI'wLAN4^R\MG1=Yg#EZ$3^\q#d807
     1BM2421 |C2021 11 25uxC9l[7se-:qigrU*RBaQ?d;5f1pced0F!)H@6kY)c4ho1OGgoe(807
     1BM2421 |C2021 11 25K!!kfKTQ5wjGyd7;UKxs9@BJJils/tDdO5P!C[jbX[c1E!UX(?yJ807
     1BM2421 KC2021 11 25jIn\v#0@g:/qoRR_:dtXu@3UO93WXf'H5u^eRI+s=nj2GBK;`Fs5W95
     1BM2421 KC2021 11 25@`joy$XjaZZ7?EiB+c_SSKPPp6vCLp*p?)tE;?-vSDoRg77PPk^UW95
     1BM2421 KC2021 11 25Eh+oX\9^,wULZOKvHXLUVA.D2ENbjfq6.V_glxKyO%d0P:2cfhs-W95
     1BM2421 KC2021 11 25vq?uF[@fR0uboUHgTwnY;XcUjLAXF(.qG^q\$^h43Q)O,Q:)dMxvE94
     1BM2421 KC2021 11 25jTg=Oy=X.4YF`$D*81[u`A'V5dubq-^$F^u$Fc]lIypm^b$s7oruE94
     1BM2421 KC2021 11 25*\J!yA.o2;-?pW0@0ZgnvFBg7`muv=vu_*k?p,7WUN]?HmSiOi^pE94

Station data:
(104) San Marcello Pistoiese  (N44.063037 E10.804200)  Italy. 0.40-m f/5
   reflector.
(595) Farra d'Isonzo  (N45.915734 E13.525780)  Italy.  Observers L.
   Bittesini, F. Fabris, E. Pettarin, F. Piani. Measurer E. Pettarin. 0.30-m
   f/4.5 reflector + CCD.
(807) Cerro Tololo Observatory, La Serena  (S30.169136 W70.805900)  Chile.
(E94) Gisborne (Possum Observatory)  (S38.629922 E177.883310)  New Zealand.
(F52) Pan-STARRS 2, Haleakala  (N20.707384 W156.255910)  US/Hawaii. 1.8-m
   Ritchey-Chrétien + CCD.
(H21) Astronomical Research Observatory, Westfield  (N39.483057 W87.968270)
   US/Illinois. 0.76-m f/3.0 astrograph + CCD.
(K51) Osservatorio del Celado, Castello Tesino  (N46.029412 E11.657900)
   Italy.
(L01) Višnjan Observatory, Tičan  (N45.290900 E13.749300)  Croatia.
   Observers K. Korlević, E. Pettarin. Measurer E. Pettarin. 1.0-m f/2.9
   reflector + CCD.
(W94) AMACS1, San Pedro de Atacama  (S22.953076 W68.179810)  Chile.
(W95) Observatorio Panameno, San Pedro de Atacama  (S22.953181 W68.179880)
   Chile.
(Y00) SONEAR Observatory, Oliveira  (S20.715082 W44.784960)  Brazil.
   Observers C. Jacques, E. Pimentel, J. Barros. Measurer C. Jacques. 0.28-m
   f/2.2 astrograph + CCD.

Orbital elements:  1BM2421
   Perihelion 2021 Sep 22.033697 +/- 0.120705 TT =  0:48:31 (JD 2459479.533697)
Epoch 2021 Nov 25.0 TT = JDT 2459543.5   Earth MOID: 0.0977   Ve: 0.0545
M  37.99714389 +/- 0.3840243        Me: 0.0534   Ma: 0.0569   AutoNEOCP
n   0.59401813 +/- 0.00489272       Peri.  215.35633 +/- 0.1545914
a   1.40153166 +/- 0.0076474        Node    86.14279 +/- 0.1273736
e   0.6471767 +/- 0.00260427        Incl.    9.12020 +/- 0.0684209
P   1.66/606.03d           H 21.6   G  0.15   U  9.2  
q 0.49449298 +/- 0.000954136    Q 2.30857034 +/- 0.0163106
From 47 observations 2021 Nov. 23-25; mean residual 0".56
Residuals in arcseconds: 
211123 W94  1.0+  .00     211123 K51  .10+  .13-    211124 F52  .19+  .41-    
211123 W94  .20+  .25-    211123 K51  .02-  .35-    211124 F52  .01+  .06-    
211123 W94  .54+  .43+    211123 595  .83-  .38+    211124 F52  .05+  .22-    
211123 W95  .29+  .89+    211123 104  .14+  .97+    211125 Y00  .72+  .03+    
211123 W95  .61-  .21-    211123 104  .23+  1.1+    211125 Y00  .51-  .35-    
211123 W95  1.3-  .91-    211123 104  1.1-  .86+    211125 Y00  .44+  .20-    
211123 W95  .20+  1.2-    211124 807  .09-  .08-    211125 807  .56-  .17-    
211123 W95  .31-  1.3-    211124 807  .31+  .10+    211125 807  .92-  .20+    
211123 W95  1.2-  .22-    211124 807  .01+  .60+    211125 807  1.1-  .13+    
211123 L01  .43-  .90+    211124 H21  .06+  .19-    211125 W95  .54-  .30-    
211123 L01  .33-  .08+    211124 H21  .30+  .53-    211125 W95  .49-  .35+    
211123 L01  .20+  .50-    211124 H21  .39+  .57-    211125 W95  .18-  .19+    
211123 L01  .07+  1.2+    211124 H21  .34+  .25-    211125 E94  .82-  .42+    
211123 L01  .88+  .26-    211124 W95  .98-  .09+    211125 E94  .19-  1.1+    
211123 595  .02-  .08+    211124 W95  .40-  .10-    211125 E94  .43+  .59+    
211123 K51  .20+  .19-    211124 W95  .30-  .11+    

Ephemerides (geocentric):
Date (UTC) HH   RA              Dec         delta   r     elong  mag " sig PA
---- -- -- --  -------------   -----------  ------ ------ -----  --- ---- ---
2021 11 26 04  02 37 22.521   -09 55 25.00  .20750 1.1577 142.1 19.8 .481 171
2021 11 26 05  02 37 21.261   -09 50 52.35  .20798 1.1582 142.1 19.8 .503 171
2021 11 26 06  02 37 20.011   -09 46 20.86  .20847 1.1586 142.1 19.8 .525 171
2021 11 26 07  02 37 18.773   -09 41 50.54  .20895 1.1591 142.2 19.8 .547 171
2021 11 26 08  02 37 17.545   -09 37 21.37  .20944 1.1595 142.2 19.8 .569 171
2021 11 26 09  02 37 16.328   -09 32 53.35  .20993 1.1600 142.2 19.9 .592 171
2021 11 26 10  02 37 15.123   -09 28 26.48  .21041 1.1604 142.2 19.9 .614 171
2021 11 26 11  02 37 13.928   -09 24 00.74  .21090 1.1609 142.3 19.9 .637 171
2021 11 26 12  02 37 12.743   -09 19 36.12  .21139 1.1613 142.3 19.9 .661 171
2021 11 26 13  02 37 11.570   -09 15 12.63  .21188 1.1618 142.3 19.9 .684 171
2021 11 26 14  02 37 10.407   -09 10 50.26  .21236 1.1623 142.3 19.9 .708 171
2021 11 26 15  02 37 09.254   -09 06 28.99  .21285 1.1627 142.4 19.9 .732 171
2021 11 26 16  02 37 08.112   -09 02 08.82  .21334 1.1632 142.4 19.9 .756 171
2021 11 26 17  02 37 06.980   -08 57 49.75  .21383 1.1636 142.4 19.9 .780 170
2021 11 26 18  02 37 05.859   -08 53 31.77  .21432 1.1641 142.4 19.9 .804 170
2021 11 26 19  02 37 04.748   -08 49 14.87  .21481 1.1645 142.4 19.9 .829 170
2021 11 26 20  02 37 03.647   -08 44 59.05  .21531 1.1650 142.5 19.9 .854 170
2021 11 26 21  02 37 02.557   -08 40 44.29  .21580 1.1654 142.5 19.9 .879 170
2021 11 26 22  02 37 01.476   -08 36 30.60  .21629 1.1659 142.5 19.9 .904 170
2021 11 26 23  02 37 00.406   -08 32 17.97  .21678 1.1664 142.5 19.9 .930 170
2021 11 27 00  02 36 59.345   -08 28 06.39  .21727 1.1668 142.5 19.9 .955 170
2021 11 27 01  02 36 58.295   -08 23 55.85  .21777 1.1673 142.6 19.9 .981 170
2021 11 27 02  02 36 57.254   -08 19 46.35  .21826 1.1677 142.6 19.9 1.01 170
2021 11 27 03  02 36 56.224   -08 15 37.88  .21876 1.1682 142.6 19.9 1.03 170
2021 11 27 04  02 36 55.203   -08 11 30.44  .21925 1.1686 142.6 19.9 1.06 170
2021 11 27 05  02 36 54.192   -08 07 24.02  .21975 1.1691 142.6 19.9 1.09 170
2021 11 27 06  02 36 53.191   -08 03 18.62  .22024 1.1695 142.7 20.0 1.11 170
2021 11 27 07  02 36 52.199   -07 59 14.22  .22074 1.1700 142.7 20.0 1.14 170
2021 11 27 08  02 36 51.217   -07 55 10.83  .22123 1.1704 142.7 20.0 1.17 169
2021 11 27 09  02 36 50.244   -07 51 08.43  .22173 1.1709 142.7 20.0 1.19 169
2021 11 27 10  02 36 49.281   -07 47 07.03  .22223 1.1713 142.7 20.0 1.22 169
2021 11 27 11  02 36 48.328   -07 43 06.61  .22272 1.1718 142.7 20.0 1.25 169
2021 11 27 12  02 36 47.384   -07 39 07.17  .22322 1.1723 142.8 20.0 1.27 169
2021 11 27 13  02 36 46.449   -07 35 08.70  .22372 1.1727 142.8 20.0 1.30 169
2021 11 27 14  02 36 45.523   -07 31 11.20  .22422 1.1732 142.8 20.0 1.33 169
2021 11 27 15  02 36 44.607   -07 27 14.67  .22472 1.1736 142.8 20.0 1.36 169
2021 11 27 16  02 36 43.700   -07 23 19.09  .22522 1.1741 142.8 20.0 1.39 169
2021 11 27 17  02 36 42.802   -07 19 24.46  .22572 1.1745 142.8 20.0 1.41 169
2021 11 27 18  02 36 41.914   -07 15 30.78  .22622 1.1750 142.9 20.0 1.44 169
2021 11 27 19  02 36 41.034   -07 11 38.04  .22672 1.1754 142.9 20.0 1.47 169
2021 11 27 20  02 36 40.163   -07 07 46.24  .22722 1.1759 142.9 20.0 1.50 169
2021 11 27 21  02 36 39.302   -07 03 55.36  .22772 1.1763 142.9 20.0 1.53 169
2021 11 27 22  02 36 38.449   -07 00 05.41  .22822 1.1768 142.9 20.0 1.55 169
2021 11 27 23  02 36 37.606   -06 56 16.38  .22872 1.1772 142.9 20.0 1.58 169
2021 11 28 00  02 36 36.771   -06 52 28.26  .22923 1.1777 142.9 20.0 1.61 168
2021 11 28 01  02 36 35.945   -06 48 41.05  .22973 1.1781 142.9 20.0 1.64 168
2021 11 28 02  02 36 35.128   -06 44 54.75  .23023 1.1786 143.0 20.1 1.67 168
2021 11 28 03  02 36 34.319   -06 41 09.34  .23074 1.1790 143.0 20.1 1.70 168